Time,TemperatureF,DewpointF,PressureIn,WindDirection,WindDirectionDegrees,WindSpeedMPH,WindSpeedGustMPH,Humidity,HourlyPrecipIn,Conditions,Clouds,dailyrainin,SoftwareType,DateUTC
2013-04-09 00:26:00,26.6,22.7,30.05,ESE,112,0.0,-999.0,85,-99.99,,,0.00,Acu-Link.com,2013-04-09 07:26:00,
2013-04-09 00:41:00,26.6,23.0,30.05,SE,135,0.0,-999.0,86,-99.99,,,0.00,Acu-Link.com,2013-04-09 07:41:00,
2013-04-09 00:56:00,26.6,22.7,30.06,ESE,112,0.0,-999.0,85,-99.99,,,0.00,Acu-Link.com,2013-04-09 07:56:00,
2013-04-09 01:12:00,26.6,22.7,30.06,ESE,112,0.0,-999.0,85,-99.99,,,0.00,Acu-Link.com,2013-04-09 08:12:00,
2013-04-09 01:27:00,26.6,22.4,30.06,ESE,112,0.0,-999.0,84,-99.99,,,0.00,Acu-Link.com,2013-04-09 08:27:00,
2013-04-09 01:42:00,26.6,23.0,30.06,SE,135,0.0,-999.0,86,-99.99,,,0.00,Acu-Link.com,2013-04-09 08:42:00,
2013-04-09 01:57:00,26.6,22.4,30.05,SE,135,0.0,-999.0,84,-99.99,,,0.00,Acu-Link.com,2013-04-09 08:57:00,
2013-04-09 02:12:00,26.6,22.7,30.05,ESE,112,0.0,-999.0,85,-99.99,,,0.00,Acu-Link.com,2013-04-09 09:12:00,
2013-04-09 02:28:00,26.6,22.7,30.05,ESE,112,0.0,-999.0,85,-99.99,,,0.00,Acu-Link.com,2013-04-09 09:28:00,
2013-04-09 02:43:00,26.6,23.0,30.05,ESE,112,0.0,-999.0,86,-99.99,,,0.00,Acu-Link.com,2013-04-09 09:43:00,
2013-04-09 02:58:00,26.6,22.7,30.05,ESE,112,0.0,-999.0,85,-99.99,,,0.00,Acu-Link.com,2013-04-09 09:58:00,
2013-04-09 03:13:00,26.6,22.7,30.04,SSE,157,0.0,-999.0,85,-99.99,,,0.00,Acu-Link.com,2013-04-09 10:13:00,
2013-04-09 03:28:00,24.8,20.7,30.04,SE,135,0.0,-999.0,84,-99.99,,,0.00,Acu-Link.com,2013-04-09 10:28:00,
2013-04-09 03:43:00,24.8,20.9,30.04,South,180,0.0,-999.0,85,-99.99,,,0.00,Acu-Link.com,2013-04-09 10:43:00,
2013-04-09 04:44:00,23.0,19.4,30.05,NE,45,0.0,-999.0,86,-99.99,,,0.00,Acu-Link.com,2013-04-09 11:44:00,
2013-04-09 05:00:00,23.0,20.0,30.05,NE,45,0.0,-999.0,88,-99.99,,,0.00,Acu-Link.com,2013-04-09 12:00:00,
2013-04-09 05:15:00,24.8,21.8,30.06,SSE,157,0.0,-999.0,88,-99.99,,,0.00,Acu-Link.com,2013-04-09 12:15:00,
2013-04-09 05:30:00,23.0,19.4,30.06,SE,135,0.0,-999.0,86,-99.99,,,0.00,Acu-Link.com,2013-04-09 12:30:00,
2013-04-09 05:45:00,23.0,19.7,30.05,ESE,112,0.0,-999.0,87,-99.99,,,0.00,Acu-Link.com,2013-04-09 12:45:00,
2013-04-09 06:01:00,24.8,21.5,30.05,SSW,202,0.0,-999.0,87,-99.99,,,0.00,Acu-Link.com,2013-04-09 13:01:00,
2013-04-09 06:16:00,24.8,21.2,30.05,South,180,0.0,-999.0,86,-99.99,,,0.00,Acu-Link.com,2013-04-09 13:16:00,
2013-04-09 06:31:00,24.8,21.5,30.04,SE,135,0.0,-999.0,87,-99.99,,,0.00,Acu-Link.com,2013-04-09 13:31:00,
2013-04-09 06:46:00,24.8,21.5,30.05,SE,135,0.0,-999.0,87,-99.99,,,0.00,Acu-Link.com,2013-04-09 13:46:00,
2013-04-09 07:01:00,26.6,23.3,30.04,SSW,202,0.0,-999.0,87,-99.99,,,0.00,Acu-Link.com,2013-04-09 14:01:00,
2013-04-09 07:16:00,26.6,23.3,30.03,WSW,247,0.0,-999.0,87,-99.99,,,0.00,Acu-Link.com,2013-04-09 14:16:00,
2013-04-09 07:31:00,26.6,23.5,30.04,SSW,202,0.0,-999.0,88,-99.99,,,0.00,Acu-Link.com,2013-04-09 14:31:00,
2013-04-09 07:47:00,28.4,25.0,30.04,SSE,157,1.1,-999.0,87,-99.99,,,0.00,Acu-Link.com,2013-04-09 14:47:00,
2013-04-09 08:02:00,30.2,25.7,30.03,SE,135,2.7,-999.0,83,-99.99,,,0.00,Acu-Link.com,2013-04-09 15:02:00,
2013-04-09 08:33:00,32.0,26.2,30.02,SE,135,1.1,-999.0,79,-99.99,,,0.00,Acu-Link.com,2013-04-09 15:33:00,
2013-04-09 08:48:00,33.8,26.4,30.01,ESE,112,1.6,-999.0,74,-99.99,,,0.00,Acu-Link.com,2013-04-09 15:48:00,
2013-04-09 09:03:00,35.6,27.8,30.01,SE,135,2.0,-999.0,73,-99.99,,,0.00,Acu-Link.com,2013-04-09 16:03:00,
2013-04-09 09:18:00,37.4,28.9,30.00,ESE,112,1.6,-999.0,71,-99.99,,,0.00,Acu-Link.com,2013-04-09 16:18:00,
2013-04-09 09:49:00,37.4,28.9,30.00,SE,135,2.0,-999.0,71,-99.99,,,0.00,Acu-Link.com,2013-04-09 16:49:00,
2013-04-09 10:04:00,39.2,29.9,30.00,ESE,112,3.1,-999.0,69,-99.99,,,0.00,Acu-Link.com,2013-04-09 17:04:00,
2013-04-09 10:19:00,42.8,32.6,30.00,SE,135,2.0,-999.0,67,-99.99,,,0.00,Acu-Link.com,2013-04-09 17:19:00,
2013-04-09 10:34:00,42.8,30.3,30.00,West,270,2.0,-999.0,61,-99.99,,,0.00,Acu-Link.com,2013-04-09 17:34:00,
2013-04-09 10:50:00,44.6,31.6,30.00,South,180,3.6,-999.0,60,-99.99,,,0.00,Acu-Link.com,2013-04-09 17:50:00,
2013-04-09 11:05:00,44.6,31.6,30.01,WSW,247,4.0,-999.0,60,-99.99,,,0.00,Acu-Link.com,2013-04-09 18:05:00,
2013-04-09 11:20:00,46.4,32.0,30.01,WNW,292,3.1,-999.0,57,-99.99,,,0.00,Acu-Link.com,2013-04-09 18:20:00,
2013-04-09 11:35:00,46.4,31.6,30.00,SW,225,2.0,-999.0,56,-99.99,,,0.00,Acu-Link.com,2013-04-09 18:35:00,
2013-04-09 11:50:00,46.4,31.1,29.99,ESE,112,3.1,-999.0,55,-99.99,,,0.00,Acu-Link.com,2013-04-09 18:50:00,
2013-04-09 12:36:00,46.4,31.6,29.98,South,180,2.0,-999.0,56,-99.99,,,0.00,Acu-Link.com,2013-04-09 19:36:00,
2013-04-09 13:07:00,42.8,35.1,29.98,East,90,3.6,-999.0,74,-99.99,,,0.00,Acu-Link.com,2013-04-09 20:07:00,
2013-04-09 13:22:00,41.0,35.0,29.98,WSW,247,2.7,-999.0,79,-99.99,,,0.00,Acu-Link.com,2013-04-09 20:22:00,
2013-04-09 13:37:00,41.0,35.9,29.99,ESE,112,3.1,-999.0,82,-99.99,,,0.01,Acu-Link.com,2013-04-09 20:37:00,
2013-04-09 13:53:00,41.0,36.2,29.99,ESE,112,3.6,-999.0,83,-99.99,,,0.01,Acu-Link.com,2013-04-09 20:53:00,
2013-04-09 14:08:00,42.8,38.3,29.98,SE,135,2.7,-999.0,84,-99.99,,,0.01,Acu-Link.com,2013-04-09 21:08:00,
2013-04-09 14:38:00,42.8,36.7,29.99,ESE,112,4.0,-999.0,79,-99.99,,,0.01,Acu-Link.com,2013-04-09 21:38:00,
2013-04-09 14:53:00,42.8,36.7,29.96,South,180,3.1,-999.0,79,-99.99,,,0.01,Acu-Link.com,2013-04-09 21:53:00,
2013-04-09 15:08:00,42.8,36.4,29.96,ESE,112,3.1,-999.0,78,-99.99,,,0.01,Acu-Link.com,2013-04-09 22:08:00,
2013-04-09 15:39:00,42.8,35.8,29.94,ESE,112,3.6,-999.0,76,-99.99,,,0.01,Acu-Link.com,2013-04-09 22:39:00,
2013-04-09 15:54:00,44.6,37.5,29.93,ESE,112,2.7,-999.0,76,-99.99,,,0.01,Acu-Link.com,2013-04-09 22:54:00,
2013-04-09 16:09:00,44.6,36.8,29.93,East,90,2.0,-999.0,74,-99.99,,,0.01,Acu-Link.com,2013-04-09 23:09:00,
2013-04-09 16:25:00,44.6,36.8,29.93,SW,225,1.6,-999.0,74,-99.99,,,0.01,Acu-Link.com,2013-04-09 23:25:00,
2013-04-09 16:40:00,44.6,36.5,29.91,SE,135,4.0,-999.0,73,-99.99,,,0.01,Acu-Link.com,2013-04-09 23:40:00,
2013-04-09 16:55:00,46.4,37.9,29.91,East,90,3.1,-999.0,72,-99.99,,,0.01,Acu-Link.com,2013-04-09 23:55:00,
2013-04-09 17:11:00,46.4,37.5,29.91,ESE,112,2.7,-999.0,71,-99.99,,,0.01,Acu-Link.com,2013-04-10 00:11:00,
2013-04-09 17:41:00,44.6,35.8,29.90,SSE,157,0.0,-999.0,71,-99.99,,,0.01,Acu-Link.com,2013-04-10 00:41:00,
2013-04-09 17:56:00,44.6,35.1,29.90,SSE,157,3.1,-999.0,69,-99.99,,,0.01,Acu-Link.com,2013-04-10 00:56:00,
2013-04-09 18:11:00,44.6,34.7,29.88,East,90,2.0,-999.0,68,-99.99,,,0.01,Acu-Link.com,2013-04-10 01:11:00,
2013-04-09 18:27:00,44.6,34.7,29.88,SE,135,2.7,-999.0,68,-99.99,,,0.01,Acu-Link.com,2013-04-10 01:27:00,
2013-04-09 18:42:00,44.6,35.1,29.89,SSE,157,3.6,-999.0,69,-99.99,,,0.01,Acu-Link.com,2013-04-10 01:42:00,
2013-04-09 18:57:00,44.6,34.7,29.88,WSW,247,3.6,-999.0,68,-99.99,,,0.01,Acu-Link.com,2013-04-10 01:57:00,
2013-04-09 19:12:00,44.6,35.1,29.88,ESE,112,3.1,-999.0,69,-99.99,,,0.01,Acu-Link.com,2013-04-10 02:12:00,
2013-04-09 19:27:00,44.6,35.4,29.87,ENE,67,2.0,-999.0,70,-99.99,,,0.01,Acu-Link.com,2013-04-10 02:27:00,
2013-04-09 19:42:00,42.8,34.1,29.87,SE,135,2.7,-999.0,71,-99.99,,,0.01,Acu-Link.com,2013-04-10 02:42:00,
2013-04-09 19:58:00,42.8,34.4,29.85,East,90,3.1,-999.0,72,-99.99,,,0.01,Acu-Link.com,2013-04-10 02:58:00,
2013-04-09 20:13:00,42.8,34.4,29.86,ESE,112,2.0,-999.0,72,-99.99,,,0.01,Acu-Link.com,2013-04-10 03:13:00,
2013-04-09 20:28:00,42.8,34.8,29.86,SE,135,3.6,-999.0,73,-99.99,,,0.01,Acu-Link.com,2013-04-10 03:28:00,
2013-04-09 20:43:00,41.0,33.0,29.86,SE,135,2.7,-999.0,73,-99.99,,,0.01,Acu-Link.com,2013-04-10 03:43:00,
2013-04-09 20:59:00,41.0,33.4,29.86,SE,135,1.1,-999.0,74,-99.99,,,0.01,Acu-Link.com,2013-04-10 03:59:00,
2013-04-09 21:14:00,41.0,33.4,29.84,SE,135,2.7,-999.0,74,-99.99,,,0.01,Acu-Link.com,2013-04-10 04:14:00,
2013-04-09 21:29:00,41.0,33.4,29.84,ESE,112,3.6,-999.0,74,-99.99,,,0.01,Acu-Link.com,2013-04-10 04:29:00,
2013-04-09 21:44:00,41.0,33.4,29.84,NE,45,2.0,-999.0,74,-99.99,,,0.01,Acu-Link.com,2013-04-10 04:44:00,
2013-04-09 22:00:00,41.0,33.4,29.85,NNW,337,0.0,-999.0,74,-99.99,,,0.01,Acu-Link.com,2013-04-10 05:00:00,
2013-04-09 22:15:00,41.0,33.0,29.85,ESE,112,3.6,-999.0,73,-99.99,,,0.01,Acu-Link.com,2013-04-10 05:15:00,
2013-04-09 22:30:00,41.0,33.0,29.83,ESE,112,2.0,-999.0,73,-99.99,,,0.01,Acu-Link.com,2013-04-10 05:30:00,
2013-04-09 22:45:00,41.0,32.7,29.83,ESE,112,2.0,-999.0,72,-99.99,,,0.01,Acu-Link.com,2013-04-10 05:45:00,
2013-04-09 23:00:00,41.0,33.0,29.82,SW,225,3.6,-999.0,73,-99.99,,,0.01,Acu-Link.com,2013-04-10 06:00:00,
2013-04-09 23:15:00,41.0,33.0,29.81,ENE,67,1.6,-999.0,73,-99.99,,,0.01,Acu-Link.com,2013-04-10 06:15:00,
2013-04-09 23:31:00,39.2,31.6,29.80,ESE,112,2.7,-999.0,74,-99.99,,,0.01,Acu-Link.com,2013-04-10 06:31:00,
2013-04-09 23:46:00,39.2,31.6,29.79,ESE,112,2.7,-999.0,74,-99.99,,,0.01,Acu-Link.com,2013-04-10 06:46:00,